Location: Embarras
(53.3000°N, 116.9000°W)
Time: 10:48:35
(UTC+00:00)

CUBESAT XI-V - Visible Passes

Search period start: 30 November 2023 00:00
Search period end: 10 December 2023 00:00
Orbit: 662 x 683 km, 98.2° (Epoch: 30 November)

Date Brightness Start Highest point End Pass type
(mag) Time Alt. Az. Time Alt. Az. Time Alt. Az.
30 Nov ? 00:19:58 10° N 00:23:23 21° WNW 00:26:48 10° WSW visible
01 Dec ? 00:54:27 10° NNW 00:56:21 12° NW 00:58:15 10° WNW visible
03 Dec ? 00:23:06 10° N 00:26:26 20° NW 00:29:44 10° W visible
04 Dec ? 00:57:41 10° NNW 00:59:21 12° NW 01:01:01 10° WNW visible
06 Dec ? 00:26:11 10° NNW 00:29:24 19° NW 00:32:35 10° W visible
07 Dec ? 01:00:53 10° NNW 01:02:17 11° NW 01:03:41 10° WNW visible
09 Dec ? 00:29:12 10° NNW 00:32:17 18° NW 00:35:23 10° W visible
